Regional Weather Roundup
Issued by NWS

Home | Current Version | Previous Version | Graphics & Text | Print | Product List | Glossary On
Versions: 1 2 3 4 5 6 7 8 9 10 11 12 13 14 15 16 17 18 19 20 21 22 23 24 25 26 27 28 29 30 31 32 33 34 35 36 37 38 39 40 41 42 43 44 45 46 47 48 49 50
000
ASUS45 KBOU 201007
RWRCO

WEATHER ROUNDUP FOR COLORADO
NATIONAL WEATHER SERVICE DENVER/BOULDER CO
400 AM MDT MON APR 20 2015

NOTE: "FAIR" INDICATES FEW OR NO CLOUDS BELOW 12000 FEET WITH NO
SIGNIFICANT WEATHER AND/OR OBSTRUCTIONS TO VISIBILITY.

COZ001>005-013-030-031-201100-
...NORTHWEST COLORADO...

CITY           SKY/WX    TMP DP  RH WIND       PRES   REMARKS
CRAIG          CLOUDY    35  33  92 CALM      30.03R
HAYDEN         CLOUDY    34  28  80 E3        30.02S
MEEKER         CLOUDY    37  33  85 NE3       30.01R
MOUNT WERNER   NOT AVBL
STEAMBOAT SPGS CLOUDY    30  29  97 CALM      30.02R
WALDEN         CLOUDY    28  27  93 N3        30.01R
$$

COZ006>008-011-201100-
...WEST CENTRAL VALLEYS...

CITY           SKY/WX    TMP DP  RH WIND       PRES   REMARKS
GRAND JUNCTION MOCLDY    43  41  93 E12       29.98S
MONTROSE       MOCLDY    42  39  89 SE8       30.03F
EAGLE          CLOUDY    37  36  93 CALM      30.03R
RIFLE          PTCLDY    41  37  86 SW3       30.01R
DELTA          CLOUDY    45  40  83 NE5       30.02S
NUCLA          NOT AVBL
$$

COZ017>023-064>068-201100-
...SOUTHWEST COLORADO...

CITY           SKY/WX    TMP DP  RH WIND       PRES   REMARKS
DURANGO        PTCLDY    30  22  72 CALM      30.00S
CORTEZ         PTCLDY    34  28  79 E6        30.00S WCI  29
PAGOSA SPRINGS PTCLDY    36  21  55 CALM      30.03S
TELLURIDE      LGT SNOW  33  32  96 E6        30.10R WCI  28
WOLF CREEK PAS CLOUDY    23  14  68 SW17      30.13S WCI   9
$$

COZ009-010-012-014-032>034-037-058>063-201100-
...CENTRAL COLORADO...

CITY           SKY/WX    TMP DP  RH WIND       PRES   REMARKS
ASPEN          CLOUDY    33  28  81 CALM      30.00F
BUENA VISTA    CLOUDY    26  23  87 CALM      30.01F
COPPER MTN     CLOUDY    25  19  80 W18G38    30.02S WCI  11
BERTHOUD PASS  CLOUDY    16   9  73 W16       30.01F WCI   0
COTTONWOOD PAS MOCLDY    32  21  64 W7        30.02S WCI  26
GUNNISON       MOCLDY    34  28  80 N5        30.07R WCI  30
KREMMLING      FLURRIES  30  28  93 CALM      30.02F
LEADVILLE      FLURRIES  24  22  91 CALM      30.00F
SALIDA         MOCLDY    33  29  85 SE3       30.09S
SUNLIGHT       FOG       30  30 100 W5        30.09S VSB 1/2 WCI  25
WILKERSON PASS CLOUDY    23  21  93 SW5       30.03F FOG     WCI  17
$$

COZ069>075-201100-
...SAN LUIS VALLEY/SANGRE DE CRISTO MOUNTAINS...

CITY           SKY/WX    TMP DP  RH WIND       PRES   REMARKS
ALAMOSA        CLOUDY    33  24  69 SE6       30.00F WCI  28
LA VETA PASS   CLOUDY    27  23  86 S7        30.03F WCI  19
SAGUACHE       MOCLDY    32  28  86 NW5       30.03S WCI  27
$$

COZ035-036-038>040-201100-
...NORTHERN COLORADO FRONT RANGE...

CITY           SKY/WX    TMP DP  RH WIND       PRES   REMARKS
DENVER INTL AP CLOUDY    35  28  75 NE10      30.04R WCI  27
DMNS CITY PARK   N/A     37  24  61 NE5G13    30.05R
AURORA         CLOUDY    34  26  73 NE3       30.04R
FRONT RANGE AP NOT AVBL
ERIE MUNI ARPT CLOUDY    37  30  77 NE6       30.05S
BOULDER MUN AP CLOUDY    36  30  80 N7        30.05R
CENTENNIAL     CLOUDY    34  28  79 CALM      30.03S
BROOMFIELD     CLOUDY    36  28  75 N8        30.05S
FORT COLLINS   MOCLDY    34  28  80 N8        30.07S WCI  27
LONGMONT       CLOUDY    38  33  81 N7        30.07S
$$

COZ041-046-047-076>085-087-088-201100-
...PIKES PEAK/PALMER DIVIDE AND SOUTHERN FOOTHILLS...

CITY           SKY/WX    TMP DP  RH WIND       PRES   REMARKS
COLO. SPRINGS  MOCLDY    36  29  75 SE6       30.03S
A. F. ACADEMY  CLOUDY    32  27  80 CALM      30.00F
ELLICOTT       CLOUDY   N/A N/A N/A CALM      30.01F
FALCON         CLOUDY    33  27  77 CALM      30.02F
FORT CARSON    CLOUDY    34  30  83 NE5       30.02R WCI  30
LIMON          CLOUDY    29  27  92 CALM      30.02F
MONUMENT HILL  CLOUDY    32  27  80 SW3       30.01S
TRINIDAD       CLOUDY    40  32  73 S7        30.01F
$$

COZ042>045-048>051-090-091-201100-
...NORTHEAST COLORADO...

CITY           SKY/WX    TMP DP  RH WIND       PRES   REMARKS
GREELEY ARPT   CLOUDY    34  27  75 N7        30.07S WCI  28
AKRON          CLOUDY    33  26  75 W7        30.02S WCI  27
BURLINGTON     CLEAR     30  24  78 W9        30.02R WCI  22
WRAY           CLEAR     30  26  84 W7        30.02S WCI  24
STERLING       CLOUDY    34  27  75 NW9       30.02S WCI  26
HOLYOKE        CLEAR     32  27  80 W9        30.01R WCI  24
FORT MORGAN    CLOUDY    37  25  61 W7        30.04F
$$

COZ086-089-092>099-201100-
...SOUTHEAST COLORADO...

CITY           SKY/WX    TMP DP  RH WIND       PRES   REMARKS
PUEBLO         PTCLDY    37  31  78 NE9       30.03S
LA JUNTA       PTCLDY    38  31  76 NE3       30.03F
LAMAR          CLOUDY    42  33  70 W6        30.01F
SPRINGFIELD      N/A     37  33  85 NW5       30.03F
$$


USA.gov is the U.S. government's official web portal to all federal, state and local government web resources and services.